• In Hungary
  • List of Countries
  • For 7 days
  • Water Temperature
  • Satellite Maps
  • Weather Map
  • News
  • Weather Widgets
  • user-avatar
    Login

    Hourly Weather Ischgl

    Today, 20 October, Saturday

    Time Temperature Precipitation Wind Pressure Humidity
    00:00 0°C° 0 mm 0 mps 577 mmHg 88%
    01:00 +1°C° 0 mm 1 mps 577 mmHg 90%
    02:00 +1°C° 0 mm 1 mps 577 mmHg 89%
    03:00 +1°C° 0 mm 1 mps 577 mmHg 89%
    04:00 +1°C° 0 mm 1 mps 577 mmHg 89%
    05:00 +1°C° 0 mm 1 mps 577 mmHg 87%
    06:00 0°C° 0 mm 1 mps 577 mmHg 86%
    07:00 +1°C° 0 mm 1 mps 578 mmHg 85%
    08:00 +3°C° 0 mm 1 mps 579 mmHg 75%
    09:00 +5°C° 0 mm 1 mps 580 mmHg 65%
    10:00 +7°C° 0 mm 1 mps 581 mmHg 55%
    11:00 +8°C° 0 mm 1 mps 582 mmHg 52%
    12:00 +8°C° 0 mm 2 mps 582 mmHg 48%
    13:00 +9°C° 0 mm 2 mps 582 mmHg 45%
    14:00 +8°C° 0 mm 2 mps 582 mmHg 50%
    15:00 +7°C° 0 mm 2 mps 582 mmHg 56%
    16:00 +7°C° 0 mm 2 mps 581 mmHg 61%
    17:00 +5°C° 0 mm 2 mps 580 mmHg 71%
    18:00 +3°C° 0 mm 2 mps 580 mmHg 81%
    19:00 +2°C° 0 mm 1 mps 579 mmHg 91%
    20:00 +2°C° 0 mm 1 mps 579 mmHg 92%
    21:00 +1°C° 0 mm 1 mps 579 mmHg 93%
    22:00 +1°C° 0 mm 1 mps 578 mmHg 94%
    23:00 +1°C° 0 mm 1 mps 578 mmHg 90%

    Tomorrow, 21 October, Sunday

    Time Temperature Precipitation Wind Pressure Humidity
    00:00 0°C° 0 mm 1 mps 578 mmHg 86%
    01:00 0°C° 0 mm 1 mps 578 mmHg 82%
    02:00 0°C° 0 mm 1 mps 577 mmHg 80%
    03:00 0°C° 0 mm 1 mps 577 mmHg 77%
    04:00 0°C° 0 mm 1 mps 577 mmHg 75%
    05:00 0°C° 0 mm 1 mps 577 mmHg 75%
    06:00 -3°C° 0 mm 2 mps 577 mmHg 76%
    07:00 -3°C° 0 mm 2 mps 576 mmHg 76%
    08:00 -1°C° 0 mm 2 mps 577 mmHg 67%
    09:00 +3°C° 0 mm 2 mps 578 mmHg 57%
    10:00 +4°C° 0 mm 3 mps 579 mmHg 47%
    11:00 +4°C° 0 mm 3 mps 579 mmHg 44%
    12:00 +5°C° 0 mm 3 mps 579 mmHg 41%
    13:00 +5°C° 0 mm 3 mps 579 mmHg 38%
    14:00 +4°C° 0 mm 3 mps 579 mmHg 43%
    15:00 +4°C° 0 mm 3 mps 578 mmHg 48%
    16:00 +3°C° 0 mm 3 mps 578 mmHg 53%
    17:00 +2°C° 0 mm 2 mps 577 mmHg 64%
    18:00 -2°C° 0 mm 2 mps 576 mmHg 75%
    19:00 -2°C° 0 mm 1 mps 576 mmHg 86%
    20:00 -2°C° 0 mm 1 mps 576 mmHg 84%
    21:00 -2°C° 0 mm 1 mps 576 mmHg 81%
    22:00 -2°C° 0 mm 1 mps 576 mmHg 78%
    23:00 -2°C° 0 mm 1 mps 576 mmHg 71%

    Day after tomorrow, 22 October, Monday

    Time Temperature Precipitation Wind Pressure Humidity
    00:00 -2°C° 0 mm 1 mps 575 mmHg 63%
    01:00 -2°C° 0 mm 1 mps 575 mmHg 55%
    02:00 -2°C° 0 mm 1 mps 575 mmHg 52%
    03:00 -2°C° 0 mm 1 mps 575 mmHg 48%
    04:00 -2°C° 0 mm 1 mps 575 mmHg 45%
    05:00 -2°C° 0 mm 1 mps 575 mmHg 45%
    06:00 -2°C° 0 mm 1 mps 575 mmHg 45%
    07:00 -2°C° 0 mm 1 mps 575 mmHg 45%
    08:00 0°C° 0 mm 1 mps 576 mmHg 41%
    09:00 +2°C° 0 mm 1 mps 578 mmHg 38%
    10:00 +4°C° 0 mm 2 mps 579 mmHg 35%
    11:00 +4°C° 0 mm 2 mps 579 mmHg 35%
    12:00 +5°C° 0 mm 2 mps 579 mmHg 36%
    13:00 +5°C° 0 mm 3 mps 579 mmHg 37%
    14:00 +4°C° 0 mm 3 mps 579 mmHg 43%
    15:00 +3°C° 0 mm 3 mps 578 mmHg 49%
    16:00 +2°C° 0 mm 3 mps 578 mmHg 56%
    17:00 0°C° 0 mm 3 mps 577 mmHg 67%
    18:00 -2°C° 0 mm 2 mps 577 mmHg 79%
    19:00 -4°C° 0 mm 2 mps 577 mmHg 90%
    20:00 -4°C° 0 mm 2 mps 577 mmHg 91%
    21:00 -4°C° 0 mm 2 mps 577 mmHg 91%
    22:00 -4°C° 0 mm 2 mps 578 mmHg 91%
    23:00 -4°C° 0 mm 2 mps 578 mmHg 90%

    23 October, Tuesday

    Time Temperature Precipitation Wind Pressure Humidity
    00:00 -5°C° 0 mm 2 mps 578 mmHg 90%
    01:00 -5°C° 0 mm 2 mps 577 mmHg 89%
    02:00 -5°C° 0 mm 2 mps 577 mmHg 87%
    03:00 -5°C° 0 mm 2 mps 577 mmHg 85%
    04:00 -5°C° 0 mm 2 mps 577 mmHg 83%
    05:00 -5°C° 0 mm 2 mps 577 mmHg 83%
    06:00 -5°C° 0 mm 2 mps 577 mmHg 83%
    07:00 -5°C° 0 mm 2 mps 577 mmHg 83%
    08:00 -3°C° 0 mm 2 mps 578 mmHg 75%
    09:00 -1°C° 0 mm 2 mps 579 mmHg 67%
    10:00 +2°C° 0 mm 2 mps 580 mmHg 59%
    11:00 +3°C° 0 mm 2 mps 580 mmHg 55%
    12:00 +3°C° 0 mm 3 mps 580 mmHg 52%
    13:00 +3°C° 0 mm 3 mps 580 mmHg 48%
    14:00 +3°C° 0 mm 3 mps 580 mmHg 52%
    15:00 +2°C° 0 mm 3 mps 579 mmHg 57%
    16:00 +1°C° 0 mm 3 mps 579 mmHg 62%
    17:00 +1°C° 0 mm 2 mps 578 mmHg 71%
    18:00 -2°C° 0 mm 2 mps 577 mmHg 81%
    19:00 -3°C° 0 mm 2 mps 577 mmHg 91%
    20:00 -3°C° 0 mm 2 mps 577 mmHg 89%
    21:00 -3°C° 0 mm 2 mps 577 mmHg 86%
    22:00 -4°C° 0 mm 2 mps 577 mmHg 84%
    23:00 -3°C° 0 mm 2 mps 577 mmHg 80%

    24 October, Wednesday

    Time Temperature Precipitation Wind Pressure Humidity
    00:00 -3°C° 0 mm 2 mps 577 mmHg 75%
    01:00 -2°C° 0 mm 2 mps 577 mmHg 71%
    02:00 -2°C° 0.1 mm 2 mps 577 mmHg 74%
    03:00 -2°C° 0.1 mm 2 mps 577 mmHg 76%
    04:00 -2°C° 0.1 mm 2 mps 577 mmHg 78%
    05:00 -2°C° 0.2 mm 3 mps 576 mmHg 81%
    06:00 -2°C° 0.2 mm 3 mps 576 mmHg 84%
    07:00 -2°C° 0.2 mm 3 mps 576 mmHg 87%
    08:00 -1°C° 0.3 mm 3 mps 577 mmHg 87%
    09:00 0°C° 0.3 mm 3 mps 577 mmHg 86%
    10:00 0°C° 0.3 mm 3 mps 577 mmHg 86%
    11:00 +1°C° 0.2 mm 3 mps 578 mmHg 85%
    12:00 +1°C° 0.2 mm 3 mps 578 mmHg 85%
    13:00 +2°C° 0.2 mm 3 mps 578 mmHg 84%
    14:00 +2°C° 0.1 mm 3 mps 578 mmHg 86%
    15:00 +2°C° 0.1 mm 3 mps 578 mmHg 87%
    16:00 +2°C° 0.1 mm 3 mps 577 mmHg 89%
    17:00 +1°C° 0.1 mm 3 mps 577 mmHg 91%
    18:00 0°C° 0.1 mm 3 mps 577 mmHg 93%
    19:00 0°C° 0.1 mm 3 mps 577 mmHg 96%
    20:00 0°C° 0.1 mm 3 mps 577 mmHg 96%
    21:00 0°C° 0.1 mm 3 mps 577 mmHg 96%
    22:00 -1°C° 0.1 mm 2 mps 578 mmHg 96%
    23:00 -1°C° 0 mm 2 mps 577 mmHg 96%

    25 October, Thursday

    Time Temperature Precipitation Wind Pressure Humidity
    00:00 -1°C° 0 mm 2 mps 577 mmHg 96%
    01:00 -1°C° 0 mm 2 mps 577 mmHg 96%
    02:00 -2°C° 0 mm 2 mps 577 mmHg 95%
    03:00 -2°C° 0 mm 2 mps 576 mmHg 95%
    04:00 -2°C° 0 mm 2 mps 576 mmHg 95%
    05:00 -2°C° 0 mm 2 mps 576 mmHg 94%
    06:00 -3°C° 0 mm 2 mps 576 mmHg 93%
    07:00 -3°C° 0 mm 2 mps 575 mmHg 92%
    08:00 +1°C° 0 mm 1 mps 576 mmHg 80%
    09:00 +4°C° 0 mm 1 mps 578 mmHg 68%
    10:00 +6°C° 0 mm 1 mps 579 mmHg 56%
    11:00 +7°C° 0 mm 1 mps 579 mmHg 51%
    12:00 +9°C° 0 mm 1 mps 579 mmHg 46%
    13:00 +10°C° 0 mm 1 mps 579 mmHg 41%
    14:00 +9°C° 0 mm 1 mps 579 mmHg 47%
    15:00 +8°C° 0 mm 1 mps 578 mmHg 53%
    16:00 +7°C° 0 mm 1 mps 578 mmHg 60%
    17:00 +5°C° 0 mm 1 mps 576 mmHg 67%
    18:00 +3°C° 0 mm 1 mps 575 mmHg 74%
    19:00 +1°C° 0 mm 1 mps 574 mmHg 82%
    20:00 +1°C° 0 mm 1 mps 574 mmHg 78%
    21:00 0°C° 0 mm 1 mps 574 mmHg 74%
    22:00 0°C° 0 mm 1 mps 574 mmHg 71%
    23:00 0°C° 0 mm 1 mps 574 mmHg 65%
    Show more